DW8722 Weather Reports


Display with metric or nautical units.
time (UTC)temp
F
wind
direction
speed
MPH
gust
MPH
rain 1hr
in
rain 24hr
in
rain mn
in
humidity
%
barometer
mb
20260902082643 77 128 0.0 0.0 0.00 0.00 0.00 77 1014.3
20260902081622 78 128 0.0 0.0 0.00 0.00 0.00 76 1014.3
20260902080617 78 128 0.0 0.0 0.00 0.00 0.00 76 1014.3
20260902075547 79 128 0.0 0.0 0.00 0.00 0.00 75 1014.3
20260902074517 79 128 0.0 0.0 0.00 0.00 0.00 75 1014.3
20260902073500 79 128 1.0 3.0 0.00 0.00 0.00 74 1014.3
20260902072451 80 126 0.0 2.0 0.00 0.00 0.00 74 1014.4
20260902071420 80 126 1.0 3.0 0.00 0.00 0.00 73 1014.4
20260902065307 80 138 1.0 3.0 0.00 0.00 0.00 72 1014.4
20260902064312 81 133 1.0 2.0 0.00 0.00 0.00 71 1014.4
20260902062203 81 133 0.0 0.0 0.00 0.00 0.00 69 1014.3
20260902061201 82 135 0.0 4.0 0.00 0.00 0.00 69 1014.4
20260902060213 82 138 0.0 4.0 0.00 0.00 0.00 68 1014.4
20260902055146 82 128 1.0 5.0 0.00 0.00 0.00 67 1014.3
20260902054115 82 140 1.0 5.0 0.00 0.00 0.00 66 1014.2
20260902053114 83 159 1.0 4.0 0.00 0.00 0.00 66 1014.2
20260902052122 83 137 1.0 4.0 0.00 0.00 0.00 65 1014.2
20260902051143 83 136 1.0 4.0 0.00 0.00 0.00 64 1014.2
20260902050200 84 135 1.0 4.0 0.00 0.00 0.00 62 1014.2
20260902045149 84 138 1.0 7.0 0.00 0.00 0.00 62 1014.2
20260902044154 84 136 1.0 7.0 0.00 0.00 0.00 62 1014.2
20260902043218 85 121 2.0 6.0 0.00 0.00 0.00 61 1014.1
20260902042206 85 123 3.0 7.0 0.00 0.00 0.00 61 1014.1
20260902041201 85 128 2.0 7.0 0.00 0.00 0.00 61 1014.0
20260902035039 85 90 1.0 6.0 0.00 0.00 0.00 60 1013.7
20260902034057 86 82 1.0 6.0 0.00 0.00 0.00 59 1013.7
20260902033044 86 92 2.0 5.0 0.00 0.00 0.00 59 1013.7
20260902025804 87 88 0.0 3.0 0.00 0.00 0.00 57 1013.4
20260902024807 87 90 0.0 0.0 0.00 0.00 0.00 56 1013.2
20260902023828 88 90 0.0 0.0 0.00 0.00 0.00 55 1013.1
20260902022757 88 93 0.0 2.0 0.00 0.00 0.00 54 1012.9
20260902021819 89 105 1.0 3.0 0.00 0.00 0.00 53 1012.8
20260902015658 90 93 1.0 5.0 0.00 0.00 0.00 52 1012.4
20260902014702 91 84 2.0 6.0 0.00 0.00 0.00 51 1012.2
20260902012553 92 105 2.0 7.0 0.00 0.00 0.00 48 1012.0
20260902011550 93 112 2.0 6.0 0.00 0.00 0.00 47 1012.0
20260902010522 94 102 3.0 9.0 0.00 0.00 0.00 46 1011.9
20260902004339 95 88 3.0 10.0 0.00 0.00 0.00 44 1011.8
20260902002211 96 29 0.0 2.0 0.00 0.00 0.00 43 1011.9
20260902001200 96 75 0.0 1.0 0.00 0.00 0.00 42 1012.0
20260902000149 96 77 0.0 0.0 0.00 0.00 0.00 43 1012.1
20260901235153 96 77 0.0 0.0 0.00 0.00 0.00 43 1012.0
20260901234146 96 77 0.0 0.0 0.00 0.00 0.00 42 1012.1
20260901233207 97 77 0.0 3.0 0.00 0.00 0.00 42 1012.3
20260901232231 97 100 3.0 8.0 0.00 0.00 0.00 41 1012.3
20260901230111 98 101 3.0 10.0 0.00 0.00 0.00 40 1012.2
20260901225038 97 67 0.0 6.0 0.00 0.00 0.00 41 1012.3
20260901224025 96 71 0.0 2.0 0.00 0.00 0.00 42 1012.2
20260901223022 96 100 3.0 7.0 0.00 0.00 0.00 42 1012.3
20260901222019 97 98 2.0 7.0 0.00 0.00 0.00 42 1012.3
20260901221028 97 78 1.0 8.0 0.00 0.00 0.00 42 1012.4
20260901220051 98 88 2.0 11.0 0.00 0.00 0.00 40 1012.4
20260901213901 98 112 1.0 12.0 0.00 0.00 0.00 39 1012.5
20260901212849 98 96 4.0 12.0 0.00 0.00 0.00 39 1012.5
20260901211831 98 159 4.0 10.0 0.00 0.00 0.00 40 1012.7
20260901205700 99 86 4.0 11.0 0.00 0.00 0.00 39 1012.8
20260901204721 100 39 0.0 8.0 0.00 0.00 0.00 39 1013.0
20260901203737 100 214 3.0 0.0 0.00 0.00 0.00 39 1013.1
20260901201643 99 74 4.0 11.0 0.00 0.00 0.00 41 1013.3
20260901194435 98 72 5.0 9.0 0.00 0.00 0.00 42 1013.7
20260901193417 98 87 4.0 9.0 0.00 0.00 0.00 43 1013.7
20260901192432 98 355 3.0 11.0 0.00 0.00 0.00 43 1013.9
20260901190356 99 111 2.0 10.0 0.00 0.00 0.00 39 1014.2
20260901185409 99 79 3.0 9.0 0.00 0.00 0.00 42 1014.3
20260901184425 98 144 5.0 10.0 0.00 0.00 0.00 44 1014.5
20260901182307 97 107 4.0 11.0 0.00 0.00 0.00 44 1015.0
20260901180204 95 96 0.0 2.0 0.00 0.00 0.00 47 1015.5
20260901175214 95 79 0.0 6.0 0.00 0.00 0.00 49 1015.6
20260901174205 93 123 0.0 6.0 0.00 0.00 0.00 51 1015.8
20260901173134 92 118 0.0 0.0 0.00 0.00 0.00 52 1016.0
20260901172147 92 171 0.0 0.0 0.00 0.00 0.00 53 1016.1
20260901171204 92 87 0.0 0.0 0.00 0.00 0.00 53 1016.2
20260901164945 93 217 3.0 7.0 0.00 0.00 0.00 52 1016.3
20260901163927 93 182 0.0 3.0 0.00 0.00 0.00 52 1016.4
20260901155548 91 182 0.0 6.0 0.00 0.00 0.00 57 1016.6
20260901154518 90 164 1.0 7.0 0.00 0.00 0.00 58 1016.6
20260901153514 90 223 2.0 7.0 0.00 0.00 0.00 59 1016.6
20260901152523 89 221 0.0 7.0 0.00 0.00 0.00 60 1016.5
20260901151511 88 186 2.0 7.0 0.00 0.00 0.00 62 1016.6
20260901150522 88 233 1.0 7.0 0.00 0.00 0.00 63 1016.6
20260901144427 87 225 1.0 7.0 0.00 0.00 0.00 64 1016.7
20260901143444 86 169 3.0 7.0 0.00 0.00 0.00 65 1016.8
20260901142420 86 178 2.0 7.0 0.00 0.00 0.00 67 1016.7
20260901141445 85 180 1.0 8.0 0.00 0.00 0.00 68 1016.7
20260901135333 84 169 1.0 0.0 0.00 0.00 0.00 70 1016.7
20260901134329 82 146 0.0 0.0 0.00 0.00 0.00 72 1016.7
20260901133333 81 173 0.0 0.0 0.00 0.00 0.00 74 1016.7
20260901132355 80 155 0.0 0.0 0.00 0.00 0.00 75 1016.7
20260901131359 78 148 0.0 0.0 0.00 0.00 0.00 78 1016.7
20260901130416 77 127 0.0 0.0 0.00 0.00 0.00 80 1016.6
20260901125434 76 122 0.0 0.0 0.00 0.00 0.00 83 1016.5
20260901124443 75 122 0.0 0.0 0.00 0.00 0.00 83 1016.3
20260901123504 74 122 0.0 0.0 0.00 0.00 0.00 83 1016.1
20260901122511 74 122 0.0 0.0 0.00 0.00 0.00 82 1016.0
20260901121500 74 122 0.0 0.0 0.00 0.00 0.00 82 1015.9
20260901120433 74 122 0.0 0.0 0.00 0.00 0.00 82 1015.9
20260901115415 74 122 0.0 0.0 0.00 0.00 0.00 81 1015.7
20260901114400 74 122 0.0 0.0 0.00 0.00 0.00 81 1015.8
20260901113348 74 122 0.0 0.0 0.00 0.00 0.00 81 1015.7
20260901112326 75 122 0.0 0.0 0.00 0.00 0.00 79 1015.6
20260901111259 75 146 0.0 0.0 0.00 0.00 0.00 78 1015.4
20260901110319 75 146 0.0 0.0 0.00 0.00 0.00 78 1015.3
20260901105342 75 146 0.0 0.0 0.00 0.00 0.00 77 1015.3
20260901103304 76 146 0.0 0.0 0.00 0.00 0.00 76 1015.2
20260901102313 77 146 0.0 3.0 0.00 0.00 0.00 76 1015.2
20260901101330 77 150 0.0 3.0 0.00 0.00 0.00 76 1015.2
20260901100259 77 140 0.0 3.0 0.00 0.00 0.00 76 1015.1
20260901095249 76 144 1.0 3.0 0.00 0.00 0.00 76 1015.3
20260901094309 76 144 1.0 3.0 0.00 0.00 0.00 77 1015.3
20260901093246 76 128 0.0 2.0 0.00 0.00 0.00 77 1015.3
20260901092305 75 112 0.0 2.0 0.00 0.00 0.00 76 1015.3
20260901091305 75 101 0.0 0.0 0.00 0.00 0.00 76 1015.4
20260901085137 76 101 0.0 0.0 0.00 0.00 0.00 75 1015.3
20260901084141 76 102 0.0 0.0 0.00 0.00 0.00 75 1015.2